Probability
0 0 0 0 0 0 0 0 0 0 0 0 0 0 0 0 0 0 0 0 0 0 0 0 0 0 0 0 0 0 0 0 0 0 0 0 0 0 0 0 0 0 0 0
0 0 0 0 0 0 0 0 0 0 0 0 0 0 0 0 0 0 0 0 0 0 0 0 0 0 0 0 0 0 0 0 0 0 0 0 0 0 0 0 0 0 0 0
0 0 0 0 0 0 0 0 0 0 0 0 0 0 0 0 0 0 0 0 0 0 0 0 0 0 0 0 0 0 0 0 0 0 0 0 0 0 0 0 0 0 0 0
0 0 0 0 0 0 0 0 0 0 0 0 0 0 0 0 0 0 0 0 0 0 0 0 0 0 0 0 0 0 0 0 0 0 0 0 0 0 0 0 0 0 0 0
0 0 0 0 0 0 0 0 0 0 0 0 0 0 0 0 0 0 0 0 0 0 0 0 0 0 0 0 0 0 0 0 0 0 0 0 0 0 0 0 0 0 0 0
0 0 0 0 0 0 0 0 0 0 0 0 0 0 0 0 0 0 0 0 0 0 0 0 0 0 0 0 0 0 0 0 0 0 0 0 0 0 0 0 0 0 0 0
0 0 0 0 0 0 0 0 0 0 0 0 0 0 0 0 0 0 0 0 0 0 0 0 0 0 0 0 0 0 0 0 0 0 0 0 0 0 0 0 0 0 0 0
0 0 0 0 0 0 0 0 0 0 0 0 0 0 0 0 0 0 0 0 0 0 0 0 0 0 0 0 0 0 0 0 0 0 0 0 0 0 0 0 0 0 0 0
0 0 0 0 0 0 0 0 0 0 0 0 0 0 0 0 0 0 0 0 0 0 0 0 0 0 0 0 0 0 0 0 0 0 0 0 0 0 0 0 0 0 0 0
0 0 0 0 0 0 0 0 0 0 0 0 0 0 0 0 0 0 0 0 0 0 0 0 0 0 0 0 0 0 0 0 0 0 0 0 0 0 0 0 0 0 0 0
0 0 0 0 0 0 0 0 0 0 0 0 0 0 0 0 0 0 0 0 0 0 0 0 0 0 0 0 0 0 0 0 0 0 0 0 0 0 0 0 0 0 0 0
0 0 0 0 0 0 0 0 0 0 0 0 0 0 0 0 0 0 0 0 0 0 0 0 0 0 0 0 0 0 0 0 0 0 0 0 0 0 0 0 0 0 0 0
0 0 0 0 0 0 0 0 0 0 0 0 0 0 0 0 0 0 0 0 0 0 0 0 0 0 0 0 0 0 0 0 0 0 0 0 0 0 0 0 0 0 0 0
0 0 0 0 0 0 0 0 0 0 0 0 0 0 0 0 0 0 0 0 0 0 0 0 0 0 0 0 0 0 0 0 0 0 0 0 0 0 0 0 0 0 0 0
0 0 0 0 0 0 0 0 0 0 0 0 0 0 0 0 0 0 0 0 0 0 0 0 0 0 0 0 0 0 0 0 0 0 0 0 0 0 0 0 0 0 0 0
0 0 0 0 0 0 0 0 0 0 0 0 0 0 0 0 0 0 0 0 0 0 0 0 0 0 0 0 0 0 0 0 0 0 0 0 0 0 0 0 0 0 0 0
0 0 0 0 0 0 0 0 0 0 0 0 0 0 0 0 0 0 0 0 0 0 0 0 0 0 0 0 0 0 0 0 0 0 0 0 0 0 0 0 0 0 0 0
0 0 0 0 0 0 0 0 0 0 0 0 0 0 0 0 0 0 0 0 0 0 0 0 0 0 0 0 0 0 0 0 0 0 0 0 0 0 0 0 0 0 0 0
0 0 0 0 0 0 0 0 0 0 0 0 0 0 0 0 0 0 0 0 0 0 0 0 0 0 0 0 0 0 0 0 0 0 0 0 0 0 0 0 0 0 0 0
0 0 0 0 0 0 0 0 0 0 0 0 0 0 0 0 0 0 0 0 0 0 0 0 0 0 0 0 0 0 0 0 0 0 0 0 0 0 0 0 0 0 0 0
0 0 0 0 0 0 0 0 0 0 0 0 0 0 0 0 0 0 0 0 0 0 0 0 0 0 0 0 0 0 0 0 0 0 0 0 0 0 0 0 0 0 0 0
0 0 0 0 0 0 0 0 0 0 0 0 0 0 0 0 0 0 0 0 0 0 0 0 0 0 0 0 0 0 0 0 0 0 0 0 0 0 0 0 0 0 0 0
0 0 0 0 0 0 0 0 0 0 0 0 0 0 0 0 0 0 0 0 0 0 0 0 0 0 0 0 0 0 0 0 0 0 0 0 0 0 0 0 0 0 0 0
0 0 0 0 0 0 0 0 0 0 0 0 0 0 0 0 0 0 0 0 0 0 0 0 0 0 0 0 0 0 0 0 0 0 0 0 0 0 0 0 0 0 0 0
0 0 0 0 0 0 0 0 0 0 0 0 0 0 0 0 0 0 0 0 0 0 0 0 0 0 0 0 0 0 0 0 0 0 0 0 0 0 0 0 0 0 0 0
0 0 0 0 0 0 0 0 0 0 0 0 0 0 0 0 0 0 0 0 0 0 0 0 0 0 0 0 0 0 0 0 0 0 0 0 0 0 0 0 0 0 0 0
Height
5716 5718 5718 5719 5719 5720 5719 5719 5720 5720 5720 5720 5720 5721 5721 5720 5720 5721 5720 5720 5720 5719 5718 5717 5717 5717 5717 5717 5716 5716 5716 5716 5716 5717 5717 5717 5717 5718 5718 5718 5718 5718 5718 5719
5711 5711 5713 5712 5712 5712 5712 5712 5712 5713 5712 5712 5712 5713 5713 5713 5713 5713 5712 5712 5711 5711 5710 5710 5709 5709 5708 5708 5708 5707 5707 5706 5706 5706 5707 5707 5707 5707 5707 5707 5707 5707 5707 5708
5704 5706 5705 5705 5705 5705 5705 5705 5706 5705 5704 5704 5704 5705 5705 5705 5704 5704 5704 5704 5703 5703 5702 5702 5701 5700 5700 5699 5699 5698 5698 5697 5696 5696 5696 5696 5696 5696 5697 5697 5697 5696 5696 5696
5696 5698 5698 5698 5698 5698 5698 5699 5698 5697 5697 5696 5696 5695 5698 5697 5697 5696 5696 5696 5695 5695 5694 5693 5693 5692 5691 5691 5690 5689 5688 5688 5687 5686 5685 5685 5685 5686 5686 5686 5686 5685 5685 5685
5689 5690 5690 5691 5692 5691 5691 5691 5691 5690 5688 5688 5688 5687 5690 5690 5689 5689 5688 5687 5687 5686 5686 5685 5684 5683 5683 5682 5681 5680 5679 5678 5678 5676 5676 5675 5675 5675 5674 5674 5674 5674 5673 5673
5682 5682 5683 5684 5684 5684 5683 5683 5683 5681 5680 5680 5681 5679 5680 5681 5681 5680 5680 5679 5678 5678 5677 5676 5675 5674 5674 5673 5672 5671 5670 5669 5668 5667 5665 5665 5664 5663 5663 5663 5662 5662 5661 5661
5674 5675 5675 5676 5676 5676 5676 5676 5674 5672 5671 5672 5673 5671 5672 5673 5672 5672 5671 5671 5670 5669 5668 5667 5666 5665 5664 5664 5663 5662 5660 5659 5658 5657 5655 5654 5653 5652 5651 5651 5650 5650 5649 5648
5666 5667 5668 5668 5668 5668 5668 5667 5667 5665 5664 5664 5664 5662 5665 5665 5664 5663 5663 5662 5661 5660 5659 5658 5657 5656 5655 5654 5653 5652 5650 5649 5648 5646 5645 5643 5642 5641 5640 5639 5638 5637 5636 5635
5658 5659 5659 5659 5659 5660 5659 5659 5659 5658 5656 5655 5655 5655 5657 5656 5655 5655 5654 5653 5652 5651 5650 5649 5648 5647 5646 5644 5643 5642 5640 5639 5637 5636 5634 5633 5631 5630 5628 5627 5625 5624 5622 5621
5650 5651 5651 5651 5651 5651 5651 5651 5650 5649 5647 5646 5647 5647 5648 5647 5647 5646 5645 5644 5643 5642 5641 5640 5638 5637 5636 5635 5633 5631 5630 5628 5627 5625 5624 5622 5620 5618 5616 5614 5612 5611 5609 5607
5642 5642 5643 5643 5643 5643 5643 5643 5642 5641 5640 5639 5638 5641 5640 5639 5638 5637 5636 5635 5634 5633 5631 5630 5628 5627 5626 5624 5623 5621 5619 5617 5616 5614 5612 5610 5608 5607 5604 5602 5600 5598 5596 5593
5634 5634 5634 5635 5635 5634 5634 5634 5634 5634 5632 5631 5630 5634 5631 5630 5629 5628 5627 5626 5624 5623 5621 5620 5618 5617 5615 5614 5612 5610 5608 5606 5604 5603 5601 5599 5597 5594 5592 5590 5587 5585 5583 5580
5626 5626 5626 5626 5628 5627 5626 5626 5626 5625 5624 5622 5621 5626 5622 5621 5620 5619 5617 5616 5615 5613 5611 5610 5608 5606 5605 5603 5601 5599 5597 5595 5593 5591 5589 5587 5585 5582 5580 5577 5575 5572 5569 5566
5618 5618 5619 5619 5618 5618 5618 5618 5617 5616 5614 5614 5614 5615 5614 5612 5610 5609 5608 5606 5605 5603 5601 5599 5597 5596 5594 5592 5590 5588 5586 5584 5582 5580 5577 5575 5572 5570 5567 5564 5561 5558 5555 5552
5609 5610 5610 5610 5610 5609 5609 5609 5608 5607 5606 5605 5606 5605 5605 5603 5601 5600 5598 5596 5595 5593 5591 5589 5587 5585 5583 5581 5579 5577 5575 5572 5570 5568 5565 5562 5560 5557 5554 5551 5548 5544 5541 5538
5601 5601 5601 5602 5601 5600 5600 5601 5600 5598 5597 5596 5595 5596 5596 5593 5591 5589 5588 5586 5584 5582 5580 5578 5576 5574 5572 5570 5568 5566 5563 5561 5558 5556 5553 5550 5547 5544 5540 5537 5534 5530 5527 5523
5593 5593 5592 5593 5593 5591 5591 5594 5591 5590 5589 5587 5586 5587 5584 5583 5581 5579 5577 5576 5574 5572 5569 5567 5565 5563 5560 5558 5556 5554 5551 5549 5546 5543 5540 5537 5534 5530 5527 5523 5520 5516 5513 5509
5584 5584 5583 5583 5584 5581 5587 5584 5583 5581 5580 5578 5577 5576 5574 5572 5571 5569 5567 5565 5563 5561 5558 5556 5554 5551 5549 5547 5544 5541 5539 5536 5533 5530 5527 5524 5520 5517 5513 5510 5506 5503 5499 5495
5576 5576 5575 5574 5573 5573 5576 5575 5573 5571 5570 5569 5567 5565 5563 5562 5560 5559 5556 5554 5552 5550 5547 5545 5542 5540 5537 5534 5532 5529 5526 5523 5520 5517 5514 5511 5507 5504 5500 5496 5492 5489 5485 5481
5568 5568 5567 5565 5564 5564 5567 5565 5563 5562 5561 5560 5557 5555 5553 5551 5550 5549 5546 5543 5541 5538 5536 5533 5531 5528 5525 5522 5520 5517 5514 5511 5508 5504 5501 5497 5494 5490 5487 5483 5479 5475 5471 5467
5560 5559 5559 5557 5555 5555 5556 5555 5553 5553 5553 5549 5547 5545 5543 5541 5540 5538 5535 5532 5529 5527 5524 5522 5519 5516 5513 5510 5508 5505 5501 5498 5495 5491 5488 5484 5481 5477 5473 5469 5465 5461 5457 5453
5552 5551 5550 5548 5547 5549 5547 5545 5544 5543 5541 5539 5536 5535 5533 5531 5528 5526 5524 5521 5519 5516 5513 5510 5508 5505 5502 5499 5496 5493 5489 5486 5482 5478 5475 5471 5467 5463 5459 5456 5451 5447 5443 5439
5543 5543 5541 5541 5541 5539 5537 5536 5534 5533 5531 5529 5527 5525 5523 5520 5518 5515 5513 5510 5507 5505 5502 5499 5496 5493 5490 5487 5484 5480 5477 5473 5469 5466 5462 5458 5454 5450 5446 5442 5438 5433 5429 5425
5535 5534 5533 5531 5531 5530 5528 5526 5525 5523 5521 5519 5517 5515 5512 5510 5508 5505 5502 5499 5496 5493 5490 5488 5485 5481 5478 5475 5471 5468 5464 5460 5457 5453 5449 5445 5441 5437 5433 5428 5424 5420 5415 5411
5527 5526 5524 5523 5522 5520 5520 5518 5516 5514 5512 5510 5507 5505 5502 5500 5497 5494 5491 5488 5485 5482 5479 5476 5473 5470 5466 5463 5459 5455 5451 5448 5444 5440 5436 5432 5428 5424 5420 5415 5410 5406 5401 5396
5520 5518 5516 5515 5514 5512 5511 5508 5506 5504 5502 5500 5497 5495 5492 5489 5486 5483 5480 5477 5474 5471 5468 5465 5461 5458 5454 5450 5447 5443 5439 5435 5431 5428 5424 5420 5416 5411 5407 5402 5397 5392 5387 5382
Wind_Speed
23 24 23 23 25 26 27 26 26 27 27 28 29 28 28 28 29 29 30 30 31 31 31 31 31 31 32 33 34 35 36 37 38 39 39 40 40 40 40 40 41 42 42 43
24 24 23 24 25 25 25 26 26 26 27 28 28 28 28 28 29 29 30 31 30 31 31 31 31 31 32 32 33 34 35 36 38 39 39 40 40 41 41 41 41 42 42 43
24 23 24 25 25 25 25 25 25 26 27 28 29 28 27 27 28 29 29 30 30 30 30 30 31 31 32 32 33 34 34 35 36 38 39 40 40 41 41 41 41 42 42 43
25 24 25 25 26 26 26 25 25 26 27 28 29 30 26 27 27 28 29 29 30 30 30 31 31 32 32 33 33 34 34 35 35 37 38 39 40 41 41 41 42 43 43 44
24 24 25 25 24 26 26 26 27 27 28 29 29 30 27 26 27 27 28 29 30 30 30 30 31 32 33 33 33 33 34 34 35 36 37 39 40 42 43 43 44 44 44 45
25 25 26 26 25 26 26 27 27 28 29 30 28 30 29 27 27 28 28 29 29 30 30 30 31 32 33 33 34 34 35 35 36 36 37 38 40 41 43 44 45 45 46 46
26 26 26 26 26 26 27 27 27 28 29 30 29 31 30 28 28 28 28 28 29 30 31 31 32 33 33 34 34 35 35 36 36 37 37 38 40 41 43 44 45 46 47 48
26 26 25 25 25 26 26 27 28 29 31 30 30 31 30 29 28 28 28 28 29 30 31 31 32 33 33 34 34 35 36 37 37 37 38 39 40 41 42 44 45 46 48 49
26 26 25 25 25 26 27 28 28 30 31 32 31 31 30 29 29 28 28 28 29 30 31 31 32 33 34 34 35 35 36 37 38 38 39 39 40 41 42 43 45 46 47 48
27 27 27 27 27 28 28 28 28 29 31 32 32 31 30 29 29 29 29 29 29 30 31 32 33 33 34 35 35 36 37 38 38 39 40 40 41 41 42 43 44 46 47 48
28 29 28 28 28 28 28 28 29 29 31 32 33 32 30 30 29 29 30 30 30 31 31 32 33 34 34 35 35 36 37 38 39 40 40 41 42 42 42 43 44 46 47 48
27 28 28 28 27 27 29 29 29 30 30 32 33 32 31 31 30 30 30 30 31 31 32 33 34 35 35 35 36 36 37 39 40 40 41 42 42 43 43 44 44 46 47 48
26 26 27 27 27 27 28 28 28 30 31 32 33 32 31 31 31 31 31 31 31 32 33 34 35 35 35 36 37 37 38 39 40 41 41 42 43 44 44 45 46 47 47 49
26 27 27 27 27 27 27 28 29 31 32 33 32 31 30 31 31 31 32 32 32 33 34 35 35 36 36 37 38 38 39 40 40 41 42 43 44 45 45 46 47 47 48 49
26 27 26 26 27 28 28 28 29 31 32 34 33 33 32 32 32 33 34 34 34 35 35 36 36 37 38 38 38 39 39 40 41 42 42 43 44 46 46 47 47 48 49 49
27 27 27 28 28 29 30 29 30 31 31 33 33 33 32 33 34 34 35 35 36 37 37 37 38 38 38 39 39 39 40 41 41 42 43 44 44 45 47 47 48 48 49 49
28 27 28 28 29 30 31 29 30 31 31 33 33 33 33 34 34 34 35 36 36 37 37 38 38 39 39 39 39 40 41 41 42 43 44 44 45 45 46 47 47 48 48 49
28 29 30 30 31 32 30 29 30 31 31 32 33 34 34 35 35 36 36 37 37 38 38 38 39 40 40 40 40 41 41 42 43 43 44 44 45 45 45 46 46 47 48 49
28 29 31 33 34 33 31 31 30 31 31 31 32 33 34 35 35 36 36 37 37 38 38 39 39 40 40 40 41 41 42 42 43 43 44 44 44 44 44 45 46 47 48 49
27 28 30 32 33 33 31 31 31 32 32 31 33 33 34 34 35 35 36 37 37 38 38 39 39 39 40 40 41 41 42 42 43 43 44 44 44 44 44 45 45 46 47 48
27 28 29 30 32 33 32 32 32 32 32 32 32 32 33 34 34 35 36 36 37 37 38 38 38 39 40 40 41 41 42 42 43 43 43 44 44 44 45 45 45 46 46 47
27 29 29 30 31 31 30 31 31 31 31 32 32 33 33 34 35 35 36 36 37 38 38 38 39 39 40 40 40 40 41 42 43 43 44 44 44 44 44 45 45 46 46 46
26 27 28 29 30 29 30 31 31 30 31 31 32 33 34 34 35 36 37 38 38 38 38 38 39 39 39 39 40 41 41 42 42 42 43 44 44 44 44 44 45 46 46 47
26 26 28 29 28 28 29 30 31 31 32 32 33 33 34 35 36 37 38 38 38 38 38 38 38 39 39 40 41 42 43 43 43 43 43 43 43 43 44 45 46 46 46 47
24 25 26 27 28 29 29 30 31 32 33 34 34 35 35 35 36 36 37 38 38 38 38 39 39 39 40 41 42 43 43 42 42 42 42 42 42 43 44 45 45 45 46 46
25 25 26 27 28 29 29 30 30 31 32 34 35 35 36 35 36 36 36 37 37 37 38 38 39 40 41 41 42 42 42 42 41 41 42 42 42 43 44 44 45 45 45 46
Wind_Direction
260 259 261 263 262 263 265 264 264 264 263 263 264 264 264 264 264 264 265 265 266 266 267 267 266 266 267 267 267 267 266 264 263 263 263 264 264 265 265 265 265 264 263 263
260 261 262 261 262 263 265 266 265 264 266 267 266 264 264 266 267 265 265 265 266 267 267 267 267 266 267 268 269 269 268 267 265 264 263 264 264 264 265 266 266 266 266 266
261 261 260 259 262 265 266 268 269 269 268 269 269 266 265 267 268 267 265 265 265 267 268 268 266 267 268 270 271 271 271 270 269 266 264 264 265 265 266 266 266 266 267 268
259 260 262 261 262 265 267 269 270 270 269 269 270 269 266 266 267 268 266 265 265 266 268 268 267 268 270 271 271 272 272 272 272 270 267 266 265 266 266 266 267 268 269 269
261 261 262 262 263 265 266 268 270 270 270 269 270 269 267 267 268 268 267 267 267 268 270 270 269 269 270 271 272 273 273 273 273 273 271 268 268 267 267 267 268 269 269 269
262 262 262 264 264 266 267 269 270 270 270 269 270 271 270 270 271 270 269 269 269 270 271 271 271 271 271 271 272 273 274 274 274 274 273 271 270 269 268 268 268 268 268 270
261 263 264 265 264 264 267 268 270 271 271 272 273 272 273 273 274 274 272 271 270 271 272 271 272 272 272 273 272 273 274 275 275 275 276 274 272 271 270 269 269 268 269 270
262 263 264 265 265 266 267 267 268 270 272 273 273 274 275 276 276 276 275 273 273 273 273 272 272 273 274 274 274 274 274 275 276 276 276 275 273 272 272 271 270 270 270 270
264 264 264 265 265 265 266 267 269 270 273 274 275 276 277 278 278 278 277 277 276 275 274 274 274 274 273 274 275 275 275 275 275 276 276 276 275 274 274 273 272 272 271 272
265 266 265 265 265 265 266 267 268 270 273 275 276 277 280 280 280 280 280 280 278 277 276 276 276 275 274 275 276 276 275 276 276 275 276 276 277 277 276 276 275 274 273 273
268 268 267 267 267 267 266 266 267 269 271 273 276 278 281 282 281 281 281 280 279 279 278 277 277 276 275 276 277 277 277 277 277 277 277 276 277 277 277 278 277 276 276 275
269 270 270 271 269 267 267 267 268 270 273 274 276 278 280 281 281 281 281 281 280 279 278 278 278 277 276 276 277 277 278 278 278 278 278 278 278 278 278 278 278 278 278 278
268 270 272 271 270 269 268 269 270 272 273 274 276 278 280 281 281 281 282 282 281 280 280 280 280 279 278 278 278 278 279 280 280 279 279 280 280 280 280 280 280 280 280 280
269 268 269 271 273 273 271 271 271 272 273 275 277 279 280 281 281 281 281 282 283 282 282 281 281 280 280 280 279 279 279 280 280 280 281 281 282 281 282 281 281 281 281 281
268 270 269 270 271 271 271 272 273 273 274 275 278 279 280 280 280 280 281 282 283 283 283 282 282 281 281 281 280 280 280 281 281 281 281 282 283 282 282 282 282 281 281 282
266 270 269 269 270 271 271 274 276 276 276 277 278 279 281 281 281 281 282 283 283 283 283 282 282 282 282 282 281 281 281 282 282 282 282 283 284 283 283 283 283 282 282 282
264 267 268 269 271 272 273 275 276 277 278 278 278 279 280 280 280 281 282 283 284 284 283 282 282 282 282 282 282 282 282 282 283 283 284 284 285 285 285 284 284 284 283 282
267 267 269 270 271 273 276 277 277 278 280 281 280 279 280 280 280 281 282 284 284 284 284 283 282 282 282 282 282 282 282 283 284 284 285 285 285 286 286 285 285 285 284 284
268 269 269 271 274 276 277 279 280 281 281 282 283 282 281 282 282 282 284 284 284 284 284 284 284 284 283 283 283 283 283 284 285 286 286 286 286 286 286 286 286 285 285 285
268 270 272 273 275 277 279 280 280 282 283 284 285 284 283 283 284 284 285 285 285 284 285 285 285 285 285 285 285 285 285 285 285 286 286 286 286 286 286 287 287 287 286 286
271 272 274 276 276 277 280 281 282 283 285 286 286 286 285 284 284 285 285 285 285 286 286 287 287 286 286 286 286 286 286 287 286 286 286 286 287 287 286 287 287 288 288 287
276 275 276 276 277 278 280 281 282 283 284 284 286 286 285 284 284 285 286 286 286 287 287 288 288 287 287 287 287 287 287 288 288 287 287 287 287 287 287 287 288 289 288 288
275 275 277 277 278 279 279 280 282 283 283 284 285 285 285 285 285 286 286 287 287 288 288 288 288 288 288 288 288 288 289 289 289 288 288 288 288 288 288 288 288 289 289 288
277 280 279 278 278 278 279 281 282 283 283 284 285 286 285 286 287 288 288 288 288 287 288 289 289 289 289 289 289 289 290 290 289 289 289 289 289 288 289 289 289 290 290 289
280 281 280 279 279 279 280 282 282 283 284 285 287 288 288 288 289 289 289 289 288 288 288 290 290 290 290 291 291 291 291 291 290 290 290 290 290 290 291 291 291 291 291 291
281 281 280 280 281 282 282 281 282 284 287 288 288 289 289 289 290 291 291 291 290 290 290 291 291 291 292 292 292 292 291 291 291 291 291 291 291 292 292 293 293 293 293 292